COSMOS 2251 DEB, 34547

Orbit data source: Space-Track

COSMOS 2251 DEB, 34547 is space debris in LEO originally from a launch on Wed, 16 Jun 1993 UTC launched from the Plesetsk Missile And Space Complex (PKMTR). The debris from Iridium 33, an American commercial communications satellite, has been tracked extensively since its accidental collision with the defunct Russian satellite Cosmos 2251 in 2009. This event, occurring at high speed in low Earth orbit (LEO), generated thousands of pieces of space debris, significantly increasing the risk of further collisions. The Iridium 33 debris cloud has impacted space traffic management and orbital debris mitigation strategies, making it a subject of ongoing study in space situational awareness.

Loading next visibility...
Identifier
34547, 1993-036UH
Orbit
LEO
Country
Flag of CISCIS
Related business
Manufacturer
Unknown
Mission
Spacecraft
Bus & Motor
Unknown
Mass
Unknown
Launch date (UTC)
1993-06-16 (33 years ago)
Launch vehicle
Unknown
Launch site
Plesetsk Missile And Space Complex (PKMTR)
Object type
Payload
Rocket body
Debris
Shape & HBR
Unknown shape, 0.1 m
Radar Cross Section
Small (<0.1 m²)

Expand to show TLE details & history
Last TLE update: 17 hours ago

TLE from 17 hours ago
0 COSMOS 2251 DEB
1 34547U 93036UH  26034.60867272  .00014575  00000-0  22279-2 0  9993
2 34547  74.0321 357.6952 0014910  57.3523 302.9087 14.73716772893003
Epoch: 2026-02-03T14:36Z
TLE epoch observation values (Epoch: 2026-02-03T14:36:29.323Z)
Latitude
0.00009°
Longitude
4.78589°
Altitude
646.201 km
Speed
7.538 km/s
True Right ascension
23h 50m 46s
True Declination
0° 00' 00"
Sunlit
Object was in daylight at epoch
Visualization orbit readout
Latitude
Unknown
Longitude
Unknown
Altitude
Unknown
Speed
Unknown
Apparent Right ascension
Unknown
Apparent Declination
Unknown
Sunlit
N/A
Visualization observer readout
Local Sidereal Time
09:22:47
Azimuth
Unknown
Elevation
Unknown
Doppler factor
Unknown
Orbital elements
Apogee altitude
657.285 km
Perigee altitude
636.336 km
Semi-major axis
7,024.947 km
Eccentricity
0.00149
Inclination
74.0321°
RAAN
357.6952°
Arg. of periapsis
57.3523°
True anomaly
302.76511°
Mean anomaly
302.9087°
Eccentric anomaly
302.83692°
Mean motion
3.6862 °/min
Orbital period
97.66 mins
BSTAR
0.0022279
Loading maneuver chart data...
Computing Atmospheric mass density...

Documentation

Showing up to 5 results
|